This is the latest recevied weather packets stored in our database for station/object KK4EQF. If no packets are shown the sender has not sent any weather packets the latest 1 day(s).
| Time | Temp. | Humidity | Pressure | Rain* | Wind** | Luminosity | Snow |
|---|---|---|---|---|---|---|---|
| 1778009966 | 27.78° C | 1% | 1015.1 hPa | 0 mm | 1.34 m/s, 224° | - | - |
| 1778009789 | 27.78° C | 1% | 1015.1 hPa | 0 mm | 1.34 m/s, 221° | - | - |
| 1778009728 | 27.78° C | 1% | 1015.1 hPa | 0 mm | 1.34 m/s, 214° | - | - |
| 1778009660 | 27.78° C | 1% | 1015.2 hPa | 0 mm | 1.34 m/s, 198° | - | - |
| 1778009600 | 27.78° C | 2% | 1015.1 hPa | 0 mm | 1.34 m/s, 215° | - | - |
| 1778009539 | 27.78° C | 5% | 1015.1 hPa | 0 mm | 1.34 m/s, 190° | - | - |
| 1778009480 | 27.78° C | 8% | 1015.2 hPa | 0 mm | 1.34 m/s, 174° | - | - |
| 1778009423 | 27.78° C | 8% | 1015.2 hPa | 0 mm | 1.34 m/s, 191° | - | - |
| 1778009360 | 27.78° C | 7% | 1015.1 hPa | 0 mm | 1.34 m/s, 206° | - | - |
| 1778009298 | 27.78° C | 8% | 1015.1 hPa | 0 mm | 1.34 m/s, 192° | - | - |
| 1778009239 | 27.78° C | 6% | 1015.1 hPa | 0 mm | 1.34 m/s, 219° | - | - |
| 1778009177 | 27.78° C | 6% | 1015.1 hPa | 0 mm | 1.34 m/s, 238° | - | - |
| 1778009114 | 27.78° C | 4% | 1015.1 hPa | 0 mm | 1.34 m/s, 222° | - | - |
| 1778009055 | 27.78° C | 4% | 1015.1 hPa | 0 mm | 1.34 m/s, 223° | - | - |
| 1778008992 | 27.78° C | 9% | 1015 hPa | 0 mm | 1.34 m/s, 254° | - | - |
| 1778008935 | 27.78° C | 12% | 1015 hPa | 0 mm | 1.34 m/s, 185° | - | - |
| 1778008872 | 27.78° C | 12% | 1015.1 hPa | 0 mm | 1.34 m/s, 190° | - | - |
| 1778008811 | 27.78° C | 9% | 1015 hPa | 0 mm | 0.89 m/s, 225° | - | - |
| 1778008741 | 27.78° C | 5% | 1015.1 hPa | 0 mm | 0.89 m/s, 168° | - | - |
| 1778008682 | 27.78° C | 3% | 1015.1 hPa | 0 mm | 0.89 m/s, 201° | - | - |
| 1778008621 | 27.78° C | 4% | 1015.1 hPa | 0 mm | 0.89 m/s, 218° | - | - |
| 1778008564 | 27.78° C | 4% | 1015.1 hPa | 0 mm | 0.89 m/s, 207° | - | - |
| 1778008504 | 27.78° C | 3% | 1015.1 hPa | 0 mm | 0.89 m/s, 206° | - | - |
| 1778008436 | 27.78° C | 3% | 1015.1 hPa | 0 mm | 1.34 m/s, 146° | - | - |
| 1778008376 | 27.78° C | 2% | 1015.1 hPa | 0 mm | 1.34 m/s, 190° | - | - |
* Rain latest hour (hover to see other rain measurements)
** Current wind speed in m/s (hover to see current wind gust speed)